DW7857 Weather Reports


Display with metric or nautical units.
time (UTC)temp
F
wind
direction
speed
MPH
gust
MPH
rain 1hr
in
rain 24hr
in
rain mn
in
humidity
%
barometer
mb
20170722204009 55 0 0.0 0.0 0.00 0.26 0.26 83 997.2
20170722203009 55 0 0.0 0.0 0.00 0.26 0.26 82 997.1
20170722202009 56 0 0.0 0.0 0.00 0.26 0.26 81 997.0
20170722201010 56 0 0.0 0.0 0.00 0.26 0.26 80 997.0
20170722200009 57 0 0.0 0.0 0.00 0.26 0.26 79 996.7
20170722195009 58 0 0.0 0.0 0.00 0.26 0.26 78 996.8
20170722194009 59 0 0.0 0.0 0.00 0.26 0.26 76 996.9
20170722193009 61 181 1.0 3.0 0.00 0.26 0.26 73 996.6
20170722192009 63 0 0.0 0.0 0.00 0.26 0.26 72 996.7
20170722191009 62 185 1.0 4.0 0.00 0.26 0.26 74 996.2
20170722190009 61 0 0.0 0.0 0.00 0.26 0.26 76 996.2
20170722185009 60 193 1.0 5.0 0.00 0.26 0.26 74 996.1
20170722184009 62 181 0.0 5.0 0.00 0.26 0.26 72 995.8
20170722183009 64 308 1.0 6.0 0.00 0.26 0.26 70 995.9
20170722182009 63 146 2.0 6.0 0.00 0.26 0.26 76 995.6
20170722181009 62 130 1.0 4.0 0.00 0.26 0.26 74 996.1
20170722180009 63 192 2.0 8.0 0.00 0.26 0.26 70 996.0
20170722175009 64 0 0.0 0.0 0.00 0.26 0.26 70 995.9
20170722174009 61 0 0.0 0.0 0.00 0.26 0.26 73 996.0
20170722173009 61 170 2.0 4.0 0.00 0.26 0.26 72 995.8
20170722172009 61 181 1.0 7.0 0.00 0.26 0.26 74 995.6
20170722171009 60 166 2.0 5.0 0.00 0.26 0.26 72 995.8
20170722170009 59 161 5.0 8.0 0.00 0.28 0.26 74 996.0
20170722165009 59 192 8.0 11.0 0.00 0.30 0.26 76 996.0
20170722164009 60 182 6.0 11.0 0.00 0.32 0.26 75 996.0
20170722163009 61 143 5.0 10.0 0.00 0.32 0.26 75 996.0
20170722162013 61 189 6.0 8.0 0.00 0.35 0.26 74 995.9
20170722160009 60 158 6.0 8.0 0.00 0.38 0.26 79 995.9
20170722155009 59 190 9.0 14.0 0.00 0.41 0.26 80 996.1
20170722154009 59 167 9.0 13.0 0.00 0.44 0.26 79 996.0
20170722153009 59 179 8.0 10.0 0.00 0.47 0.26 78 995.9
20170722152009 59 178 6.0 12.0 0.00 0.54 0.26 80 995.9
20170722151009 59 184 8.0 13.0 0.00 0.65 0.26 80 995.9
20170722150010 59 234 7.0 11.0 0.00 0.76 0.26 79 996.0
20170722145009 59 171 5.0 8.0 0.04 0.98 0.26 80 995.9
20170722144009 58 194 9.0 13.0 0.04 1.05 0.26 80 995.9
20170722143009 58 132 6.0 10.0 0.04 1.12 0.26 82 996.0
20170722142009 58 165 4.0 9.0 0.04 1.15 0.26 83 996.1
20170722141009 58 192 4.0 8.0 0.04 1.22 0.26 83 995.8
20170722140009 58 172 7.0 11.0 0.06 1.25 0.26 81 995.9
20170722135009 60 136 4.0 6.0 0.13 1.24 0.22 82 995.8
20170722134009 60 248 3.0 6.0 0.13 1.28 0.22 86 995.8
20170722133010 58 186 5.0 6.0 0.13 1.32 0.22 86 995.9
20170722132009 56 161 6.0 8.0 0.13 1.33 0.22 85 995.9
20170722131009 55 181 8.0 12.0 0.13 1.35 0.22 81 996.0
20170722130009 57 179 9.0 11.0 0.09 1.35 0.19 74 996.1
20170722125009 60 205 7.0 9.0 0.00 1.28 0.09 71 995.9
20170722124009 60 205 8.0 13.0 0.00 1.29 0.09 72 995.8
20170722123009 59 189 8.0 12.0 0.00 1.29 0.09 73 995.8
20170722122009 59 185 9.0 12.0 0.00 1.30 0.09 71 995.9
20170722121009 60 174 8.0 13.0 0.00 1.31 0.09 71 995.5
20170722120009 59 182 10.0 14.0 0.00 1.31 0.09 72 995.9
20170722115009 59 167 11.0 16.0 0.00 1.32 0.09 73 995.5
20170722114009 60 147 10.0 15.0 0.00 1.32 0.09 74 995.4
20170722113009 60 126 8.0 12.0 0.00 1.32 0.09 77 995.3
20170722112009 58 153 8.0 11.0 0.00 1.32 0.09 78 995.4
20170722111010 59 179 11.0 17.0 0.00 1.32 0.09 71 995.6
20170722110009 62 170 6.0 12.0 0.00 1.32 0.09 71 995.1
20170722105009 63 169 7.0 12.0 0.00 1.32 0.09 70 995.2
20170722104010 62 179 8.0 12.0 0.00 1.32 0.09 70 995.1
20170722103009 62 161 6.0 11.0 0.00 1.32 0.09 73 995.4
20170722102009 61 175 8.0 9.0 0.00 1.32 0.09 74 995.2
20170722101009 61 222 5.0 9.0 0.00 1.32 0.09 78 995.2
20170722100009 60 201 6.0 10.0 0.00 1.32 0.09 78 995.2
20170722095009 60 172 7.0 13.0 0.00 1.32 0.09 78 995.3
20170722094009 59 181 9.0 11.0 0.01 1.32 0.09 78 995.2
20170722093009 60 192 8.0 10.0 0.01 1.32 0.09 77 995.1
20170722092009 60 212 5.0 9.0 0.01 1.32 0.09 81 995.2
20170722091009 61 147 5.0 9.0 0.01 1.32 0.09 82 995.5
20170722090009 62 130 2.0 4.0 0.01 1.32 0.09 87 995.4
20170722085009 60 111 2.0 4.0 0.01 1.32 0.09 91 995.4
20170722084009 58 76 1.0 3.0 0.00 1.31 0.08 92 995.4
20170722083009 57 106 2.0 3.0 0.00 1.31 0.08 93 995.2
20170722082009 57 134 2.0 4.0 0.04 1.31 0.08 94 995.3
20170722081009 56 124 1.0 3.0 0.06 1.31 0.08 94 995.3
20170722080009 55 107 2.0 4.0 0.08 1.31 0.08 94 995.3
20170722075009 55 122 0.0 3.0 0.08 1.31 0.08 94 995.5
20170722074009 55 240 4.0 6.0 0.08 1.31 0.08 93 995.4
20170722073009 55 154 7.0 12.0 0.08 1.31 0.08 94 995.3
20170722072009 57 164 4.0 11.0 0.04 1.26 0.04 97 995.1
20170722071009 60 149 2.0 4.0 0.02 1.25 0.02 99 995.1
20170722070009 60 135 0.0 3.0 0.00 1.23 0.00 99 994.8
20170722065009 57 0 0.0 0.0 0.00 1.23 0.00 99 994.8
20170722064009 56 0 0.0 0.0 0.00 1.23 0.00 99 995.0
20170722063009 56 0 0.0 0.0 0.00 1.23 0.00 99 994.7
20170722062009 56 0 0.0 0.0 0.00 1.23 0.00 99 995.1
20170722061009 54 184 0.0 2.0 0.00 1.23 0.00 99 994.9
20170722060009 53 0 0.0 0.0 0.00 1.23 0.00 99 994.9
20170722055009 51 165 1.0 2.0 0.00 1.23 0.00 99 995.0
20170722054009 51 0 0.0 0.0 0.00 1.23 0.00 99 994.6
20170722053009 51 135 0.0 1.0 0.00 1.23 0.00 99 994.7
20170722052009 51 225 0.0 1.0 0.00 1.23 0.00 99 994.8
20170722051009 50 0 0.0 0.0 0.00 1.23 0.00 99 994.7
20170722050009 50 0 0.0 0.0 0.00 1.23 0.00 99 994.5
20170722045009 50 0 0.0 0.0 0.00 1.23 0.00 99 994.5
20170722044009 49 0 0.0 0.0 0.00 1.23 0.00 99 994.5
20170722043009 49 0 0.0 0.0 0.00 1.23 0.00 99 994.5
20170722042009 49 160 0.0 2.0 0.00 1.23 0.00 99 994.7
20170722041009 49 135 0.0 1.0 0.00 1.23 0.00 99 994.5
20170722040009 49 0 0.0 0.0 0.00 1.23 0.00 99 994.5
20170722035009 49 225 0.0 2.0 0.00 1.23 0.00 99 994.3
20170722034009 49 0 0.0 0.0 0.00 1.23 0.00 99 994.4
20170722033009 49 0 0.0 0.0 0.00 1.23 0.00 99 994.3
20170722032009 49 0 0.0 0.0 0.00 1.23 0.00 99 994.5
20170722031009 49 0 0.0 0.0 0.00 1.23 0.00 100 994.4
20170722030009 49 0 0.0 0.0 0.00 1.23 0.00 100 994.6
20170722025009 49 0 0.0 0.0 0.00 1.23 0.00 100 994.4
20170722024009 49 0 0.0 0.0 0.00 1.23 0.00 100 994.4
20170722023009 49 0 0.0 0.0 0.00 1.24 0.00 100 994.3
20170722022009 49 0 0.0 0.0 0.00 1.24 0.00 100 994.2
20170722021009 49 0 0.0 0.0 0.00 1.24 0.00 100 994.4
20170722020009 49 0 0.0 0.0 0.00 1.24 0.00 100 994.1
20170722015009 49 0 0.0 0.0 0.00 1.24 0.00 100 994.4
20170722014009 50 184 1.0 3.0 0.00 1.24 0.00 100 994.3
20170722013009 50 181 0.0 2.0 0.00 1.24 0.00 100 994.2
20170722012009 50 0 0.0 0.0 0.00 1.24 0.00 97 994.3
20170722011009 50 0 0.0 0.0 0.00 1.24 0.00 97 994.2
20170722010009 50 0 0.0 0.0 0.00 1.24 0.00 97 994.4
20170722005009 50 0 0.0 0.0 0.00 1.24 0.00 100 994.1
20170722004009 51 0 0.0 0.0 0.00 1.24 0.00 100 993.9
20170722003009 51 0 0.0 0.0 0.00 1.24 0.00 97 994.1
20170722002009 51 0 0.0 0.0 0.00 1.24 0.00 97 993.9
20170722001009 51 0 0.0 0.0 0.00 1.24 0.00 100 993.9
20170722000012 51 0 0.0 0.0 0.00 1.24 0.00 100 993.7
20170721235009 51 0 0.0 0.0 0.00 1.24 1.24 97 994.0
20170721234009 51 0 0.0 0.0 0.00 1.24 1.24 97 994.1
20170721233009 51 0 0.0 0.0 0.00 1.24 1.24 97 993.9
20170721232009 51 0 0.0 0.0 0.00 1.24 1.24 97 994.1
20170721231009 52 0 0.0 0.0 0.00 1.24 1.24 97 994.1
20170721230009 52 225 0.0 2.0 0.00 1.24 1.24 97 994.1
20170721225009 52 0 0.0 0.0 0.00 1.24 1.24 97 993.8
20170721224009 52 0 0.0 0.0 0.00 1.24 1.24 97 993.9
20170721223009 53 0 0.0 0.0 0.00 1.24 1.24 97 993.7
20170721222009 53 182 2.0 4.0 0.00 1.24 1.24 97 993.6
20170721221009 53 0 0.0 0.0 0.00 1.24 1.24 97 993.5
20170721220009 53 0 0.0 0.0 0.00 1.24 1.24 97 993.5
20170721215009 54 0 0.0 0.0 0.00 1.24 1.24 97 993.5
20170721214009 54 0 0.0 0.0 0.00 1.24 1.24 97 993.4
20170721213009 54 0 0.0 0.0 0.00 1.24 1.24 97 993.3
20170721212009 54 0 0.0 0.0 0.00 1.24 1.24 97 993.1
20170721211009 55 0 0.0 0.0 0.00 1.24 1.24 94 993.0
20170721210009 55 0 0.0 0.0 0.00 1.24 1.24 94 992.9
20170721205009 55 0 0.0 0.0 0.00 1.24 1.24 94 992.8